Showing default

GLOBALSTAR M072, 31574

Orbit data source: Space-Track

GLOBALSTAR M072, 31574 is a payload satellite owned by Globalstar (US) in LEO that was launched on Tue, 29 May 2007 UTC via a SOYUZ-FG launch vehicle from the Tyuratam Missile And Space Complex (TTMTR). Payload-class satellites include a variety of spacecraft equipped with specific instruments for various scientific and technological missions. These include communications satellites like Starlink; space stations such as the ISS; scientific satellites like the Hubble; Earth observation satellites from companies like Planet Labs, Umbra, and HawkEye 360; GPS; miniature CubeSats for education and research; and military/defense satellites.

Loading next visibility...
Identifier
31574, 2007-020D
Orbit
LEO
Country
Flag of UnknownUnknown / GLOB
Related business
Manufacturer
SS/Loral
Mission
Operational Commercial Communications
Bus & Motor
LS-400, LS-400 AOCS
Mass
450 kg wet, 380 kg dry
Launch date (UTC)
2007-05-29 (18 years ago)
Launch vehicle
SOYUZ-FG
Launch site
Tyuratam Missile And Space Complex (TTMTR)
Object type
Payload
Rocket body
Debris
Shape & HBR
Box + 2 Pan, 6.0 m
Radar Cross Section
5.587 m², Large (>1 m²)

Expand to show TLE details & history
Last TLE update: 11 hours ago

TLE from 11 hours ago
0 GLOBALSTAR M072
1 31574U 07020D   25261.05565252 -.00000065  00000-0  25582-3 0  9992
2 31574  51.9914 104.7311 0001652 114.9886  50.3168 11.91651835842534
Epoch: 2025-09-18T01:20Z
TLE epoch observation values (Epoch: 2025-09-18T01:20:08.377Z)
Latitude
11.51323°
Longitude
-101.64242°
Altitude
1,717.51 km
Speed
7.02 km/s
True Right ascension
18h 22m 27s
True Declination
11° 27' 15"
Sunlit
Object was in daylight at epoch
Visualization orbit readout
Latitude
Unknown
Longitude
Unknown
Altitude
Unknown
Speed
Unknown
Apparent Right ascension
Unknown
Apparent Declination
Unknown
Sunlit
N/A
Visualization observer readout
Local Sidereal Time
05:36:33
Azimuth
Unknown
Elevation
Unknown
Doppler factor
Unknown
Orbital elements
Apogee altitude
1,720.172 km
Perigee altitude
1,717.496 km
Semi-major axis
8,096.971 km
Eccentricity
0.00017
Inclination
51.9914°
RAAN
104.7311°
Arg. of periapsis
114.9886°
True anomaly
50.33137°
Mean anomaly
50.3168°
Eccentric anomaly
50.32409°
Mean motion
2.97892 °/min
Orbital period
120.85 mins
BSTAR
0.00025582
Loading maneuver chart data...
Computing Atmospheric mass density...
Loading historical data...
Loading historical data...
Loading historical data...
Loading historical data...
Loading historical data...
Loading historical data...
Loading historical data...

Documentation

Showing up to 5 results
|